Flag for United Kingdom Weather past 2 weeks in Preston, England, United Kingdom

Now
54 °F

Partly sunny.


Feels Like: 51 °F
Forecast: 55 / 58 °F
Wind: 9 mph from South

Location: Liverpool Airport

Current Time: Oct 25, 2014 at 11:41:19 AM

Latest Report: Oct 25, 2014 at 11:20 AM


Visibility: N/A

Pressure: 29.92 "Hg

Humidity: 88%

Dew point: 50 °F

Location of PrestonLocation

Historic Weather in Preston — Graph

°F

Preston temperature yesterday

Maximum temperature yesterday: 57 °F (at 12:20 AM)
Minimum temperature yesterday: 50 °F (at 7:20 PM)
Average temperature yesterday: 54 °F

Past Weeks' High & Low Weather Summary

 TemperatureHumidityPressure
High68 °F (Oct 18, 2:50 PM)100% (Oct 11, 4:20 AM)30.24 "Hg (Oct 11, 4:20 AM)
Low37 °F (Oct 12, 8:20 AM)54% (Oct 21, 3:50 PM)29.36 "Hg (Oct 21, 4:20 AM)
Average54 °F84%29.78 "Hg
* Reported Oct 10 10:20 AM — Oct 25 10:20 AM, Preston, Weather by CustomWeather, © 2014

Note: Actual official high and low records may vary slightly from our data, if they occured in-between our weather recording intervals... More about our weather records

Advertising

Preston weather history for previous 24 hours

 ConditionsComfort  
Time TempWeatherWind HumidityBarometerVisibility
10:20 AM
Oct 25
50 °FLight rain. Scattered clouds.10 mph94%29.92 "HgN/A
9:50 AM50 °FScattered showers. Partly sunny.7 mph94%29.95 "HgN/A
9:20 AM52 °FScattered clouds.10 mph82%29.92 "HgN/A
8:50 AM52 °FPartly cloudy.9 mph82%29.92 "HgN/A
8:20 AM50 °FPartly cloudy.10 mph88%29.92 "HgN/A
7:50 AM50 °FPassing clouds.10 mph88%29.92 "HgN/A
7:20 AM50 °FPassing clouds.8 mph88%29.92 "HgN/A
6:20 AM50 °FPassing clouds.13 mph88%29.92 "HgN/A
5:50 AM50 °FPassing clouds.15 mph88%29.92 "HgN/A
5:20 AM50 °FClear.15 mph88%29.92 "Hg10 mi
4:50 AM50 °FClear.13 mph88%29.92 "Hg10 mi
4:20 AM50 °FClear.12 mph88%29.92 "Hg10 mi
3:50 AM50 °FClear.10 mph88%29.92 "Hg10 mi
3:20 AM50 °FClear.9 mph88%29.92 "Hg10 mi
2:50 AM50 °FClear.6 mph82%29.92 "Hg10 mi
2:20 AM50 °FClear.8 mph82%29.92 "Hg10 mi
1:50 AM50 °FClear.8 mph88%29.92 "Hg10 mi
1:20 AM50 °FPassing clouds.9 mph88%29.92 "HgN/A
12:50 AM50 °FClear.10 mph82%29.92 "Hg10 mi
12:20 AM50 °FPassing clouds.7 mph82%29.92 "HgN/A
11:50 PM
Oct 24
50 °FPassing clouds.8 mph82%29.92 "HgN/A
11:20 PM50 °FPassing clouds.9 mph82%29.92 "HgN/A
10:50 PM50 °FPassing clouds.8 mph88%29.92 "HgN/A
10:20 PM50 °FClear.8 mph88%29.92 "Hg10 mi
9:50 PM50 °FClear.8 mph88%29.92 "Hg10 mi
9:20 PM50 °FClear.8 mph88%29.89 "Hg10 mi
8:50 PM50 °FPassing clouds.7 mph88%29.89 "HgN/A
8:20 PM52 °FPassing clouds.7 mph82%29.89 "HgN/A
7:50 PM52 °FClear.8 mph82%29.89 "Hg10 mi
7:20 PM50 °FClear.6 mph82%29.89 "Hg10 mi
6:50 PM52 °FPassing clouds.7 mph77%29.89 "HgN/A
6:20 PM52 °FPassing clouds.8 mph77%29.86 "HgN/A
5:50 PM54 °FPassing clouds.8 mph67%29.86 "HgN/A
5:20 PM54 °FPassing clouds.6 mph67%29.86 "HgN/A
4:50 PM54 °FPassing clouds.9 mph67%29.86 "HgN/A
4:20 PM55 °FPassing clouds.15 mph63%29.86 "HgN/A
3:50 PM54 °FScattered clouds.9 mph77%29.86 "HgN/A
3:20 PM54 °FLight rain. Scattered clouds.9 mph82%29.86 "HgN/A
2:50 PM55 °FScattered clouds.9 mph77%29.86 "HgN/A
2:20 PM55 °FScattered clouds.7 mph82%29.86 "HgN/A
1:50 PM55 °FScattered clouds.7 mph82%29.86 "HgN/A
1:20 PM57 °FScattered clouds.9 mph72%29.86 "HgN/A
12:50 PM57 °FScattered clouds.7 mph77%29.89 "HgN/A
12:20 PM55 °FScattered clouds.8 mph82%29.89 "HgN/A
11:50 AM55 °FPassing clouds.5 mph88%29.89 "HgN/A
11:20 AM55 °FPassing clouds.3 mph88%29.89 "HgN/A
Weather by CustomWeather, © 2014

See weather overviewHow to use our weather pages